Temp
21 21 22 21 25 26 24 23 25 24 24 23 22 24 24 23 23 22 19 17 18 16 16 17 16 16 16 16 16 16 16 16 16 16 15 15 15 15 15 15 15 15 15 15 15 15 15 15 15
21 21 21 24 26 25 24 25 24 24 23 22 22 23 24 23 21 20 19 18 18 16 15 16 16 16 16 16 16 16 16 16 16 16 15 15 15 15 15 15 15 15 15 15 15 15 15 15 15
21 21 23 26 26 26 24 25 24 23 22 23 23 23 23 21 20 19 18 18 17 15 15 15 16 15 15 16 16 16 16 16 15 15 15 15 15 14 14 15 15 14 15 15 14 14 15 15 15
20 22 23 25 25 24 25 25 24 24 23 22 23 23 20 17 18 17 18 18 16 16 15 16 16 15 15 15 16 16 15 15 15 15 15 15 14 14 14 14 14 14 14 15 14 14 14 15 15
21 23 25 25 24 24 24 23 23 24 24 23 23 23 21 17 16 16 16 16 16 16 15 17 16 16 15 15 15 15 15 15 15 15 15 15 14 14 14 14 14 14 14 14 14 14 14 15 15
23 24 25 24 25 24 24 23 23 24 23 23 23 23 19 16 16 16 16 15 15 15 16 15 16 16 15 15 15 15 15 15 15 15 15 14 14 14 13 14 14 14 14 14 14 14 14 14 15
23 25 25 25 24 23 24 22 23 24 24 23 22 24 19 17 18 16 17 16 16 16 16 15 14 15 15 15 15 15 15 15 14 14 14 14 14 14 13 13 13 13 13 13 13 14 14 14 15
22 24 23 25 24 24 23 22 22 23 23 20 20 23 22 17 18 17 17 17 17 17 17 17 16 16 15 15 15 15 14 14 14 14 14 14 14 13 13 12 12 12 12 12 13 13 14 14 14
20 24 24 24 24 24 22 23 21 20 22 20 18 18 18 18 17 16 15 16 17 17 17 17 17 17 16 15 14 14 14 14 14 14 14 14 14 13 12 12 12 11 11 10 11 12 12 13 14
22 23 24 24 24 24 22 22 22 22 22 20 18 17 17 17 16 15 15 14 16 17 17 17 17 16 16 16 15 14 14 14 14 14 14 14 13 13 13 12 11 11 11 11 11 10 12 12 12
21 23 22 21 21 22 22 21 20 22 22 21 21 15 16 15 16 16 16 16 17 17 17 17 17 16 16 16 15 14 13 13 13 13 13 13 13 14 13 13 12 12 11 11 11 11 10 10 11
21 20 21 19 18 19 20 20 21 20 18 15 14 15 14 14 15 16 16 16 16 16 16 17 17 17 16 15 14 13 12 13 13 13 13 13 13 13 13 13 12 12 12 11 11 11 10 10 10
20 20 19 18 17 18 17 19 20 19 14 14 14 14 13 13 14 15 15 15 15 15 15 16 16 16 16 15 13 12 12 12 13 13 13 13 13 12 12 12 12 11 11 12 11 11 10 10 10
19 19 20 19 18 18 18 20 17 19 14 13 12 12 12 13 14 13 14 14 14 14 15 15 15 15 15 12 12 12 12 11 12 12 12 12 13 12 12 12 12 11 11 11 11 11 11 11 11
18 19 21 20 19 19 17 18 17 17 13 13 12 11 11 13 14 13 14 13 13 13 14 14 14 14 15 12 11 11 11 11 11 11 11 11 11 11 11 11 11 11 10 11 10 10 10 10 10
19 19 20 21 18 17 17 21 20 14 14 14 13 12 12 12 12 12 12 12 12 13 13 13 13 13 12 11 11 11 11 11 11 10 11 11 11 11 11 11 10 10 10 10 10 10 10 10 10
20 21 21 21 18 18 18 21 17 15 15 15 14 12 10 9 8 10 11 11 11 12 12 11 10 10 10 10 10 11 11 11 10 10 10 11 10 10 10 10 10 10 10 9 9 9 9 9 9
21 20 21 20 19 18 19 19 17 15 15 16 14 12 10 9 7 10 11 10 10 9 8 9 9 9 9 9 10 10 10 10 10 10 10 10 10 9 9 9 9 9 9 9 9 9 9 8 8
20 20 20 22 19 17 19 20 21 16 14 15 14 12 11 9 8 9 9 9 9 8 8 8 9 9 9 9 10 10 10 10 10 10 10 10 9 9 9 9 9 9 8 8 8 7 6 6 7
18 18 19 21 18 16 19 19 20 20 16 15 15 13 11 8 6 7 8 8 7 7 8 8 8 8 8 9 9 10 10 10 10 10 10 10 10 10 10 9 9 8 8 7 7 7 6 6 6
18 18 19 19 16 16 17 17 18 19 17 14 13 12 10 8 7 5 7 7 7 7 8 8 8 8 9 9 10 10 11 11 10 10 10 10 9 9 9 8 8 7 7 7 6 6 6 5 5
17 19 18 18 16 17 17 17 19 20 15 12 10 10 9 8 7 5 6 7 8 8 8 9 9 9 9 9 10 10 11 10 10 9 9 9 8 8 8 7 7 6 6 6 5 5 4 4 4
17 16 16 16 16 16 17 14 18 18 16 13 10 9 9 7 6 5 6 7 8 8 9 9 9 10 10 10 10 10 10 9 9 8 7 7 6 6 6 5 5 4 4 4 3 3 3 2 2
14 14 13 14 15 14 16 16 18 18 16 16 10 8 8 6 5 5 7 8 8 8 9 9 9 9 9 8 8 8 8 8 7 7 6 6 6 5 5 5 4 4 4 3 3 2 2 1 1
14 14 14 14 13 13 15 16 17 19 15 16 11 8 8 6 5 4 6 7 7 8 8 8 8 8 8 8 7 7 7 6 6 6 6 5 5 4 4 4 3 3 2 2 1 1 1 0 0
12 15 15 13 14 15 10 13 17 15 13 10 11 9 7 6 5 4 6 6 7 7 8 8 7 7 7 7 6 6 6 6 5 5 5 4 4 3 3 2 2 1 1 1 0 -0 -0 -0 -1
13 13 16 12 7 11 15 15 16 9 8 8 10 8 7 5 4 4 5 6 7 7 7 7 6 6 6 6 6 6 6 5 5 4 4 3 3 2 2 1 1 0 -0 -0 -1 -1 -1 -1 -1
13 14 11 12 11 13 16 16 17 9 10 8 9 8 6 5 4 4 5 6 6 6 6 6 5 5 5 5 5 5 4 4 3 3 2 2 2 1 0 -0 -1 -1 -1 -1 -2 -2 -2 -2 -2
11 12 13 14 13 14 15 17 17 16 13 9 8 7 6 5 4 4 5 6 6 6 5 5 5 5 5 4 4 4 4 3 2 2 2 1 0 -0 -1 -1 -1 -2 -2 -2 -2 -2 -2 -2 -2
15 14 13 13 11 12 12 16 12 14 15 11 8 7 6 5 4 4 4 5 5 5 5 5 5 5 4 4 4 3 2 2 2 1 1 0 -0 -1 -1 -1 -2 -2 -2 -3 -3 -3 -3 -3 -3
Height
1527 1527 1527 1527 1526 1516 1530 1536 1529 1531 1530 1536 1538 1535 1538 1539 1539 1548 1550 1550 1549 1552 1553 1554 1556 1558 1560 1561 1563 1564 1565 1566 1567 1567 1567 1568 1568 1568 1568 1568 1568 1567 1566 1565 1566 1566 1565 1565 1565
1527 1528 1529 1526 1521 1525 1531 1529 1532 1533 1536 1538 1539 1538 1537 1543 1546 1549 1551 1550 1549 1552 1554 1555 1556 1558 1560 1562 1563 1565 1566 1567 1568 1568 1569 1569 1569 1570 1570 1570 1569 1568 1567 1567 1567 1566 1566 1566 1566
1528 1529 1529 1521 1518 1523 1531 1529 1532 1536 1538 1538 1538 1540 1541 1547 1549 1551 1551 1550 1551 1553 1555 1556 1557 1559 1561 1562 1563 1565 1566 1568 1568 1569 1570 1570 1570 1571 1571 1570 1570 1570 1568 1568 1568 1567 1567 1567 1566
1531 1532 1530 1523 1525 1529 1526 1530 1534 1536 1538 1539 1539 1541 1547 1551 1551 1551 1551 1551 1553 1553 1555 1556 1558 1560 1562 1562 1564 1565 1566 1568 1569 1569 1570 1570 1571 1571 1571 1571 1571 1570 1569 1569 1568 1567 1566 1566 1566
1532 1530 1524 1526 1530 1530 1532 1534 1536 1535 1538 1539 1540 1541 1548 1551 1552 1552 1552 1553 1554 1554 1555 1556 1558 1560 1562 1563 1565 1566 1567 1567 1569 1569 1570 1571 1571 1571 1571 1571 1571 1571 1571 1569 1569 1568 1568 1567 1567
1532 1529 1526 1530 1528 1531 1533 1537 1537 1536 1539 1541 1541 1542 1551 1551 1552 1552 1553 1553 1554 1555 1555 1556 1558 1559 1561 1563 1564 1565 1567 1568 1569 1570 1570 1571 1571 1572 1572 1571 1572 1572 1571 1570 1570 1569 1568 1568 1567
1532 1527 1523 1522 1529 1533 1533 1538 1538 1537 1539 1542 1544 1542 1551 1550 1551 1552 1552 1553 1553 1554 1555 1556 1558 1559 1560 1562 1563 1565 1567 1568 1569 1570 1571 1572 1572 1572 1572 1572 1572 1571 1571 1571 1571 1570 1570 1569 1569
1534 1530 1530 1526 1530 1533 1536 1539 1540 1540 1541 1544 1545 1542 1548 1549 1550 1551 1552 1553 1554 1554 1554 1554 1555 1556 1558 1561 1563 1564 1566 1567 1568 1569 1571 1572 1572 1572 1573 1572 1572 1572 1572 1572 1572 1571 1571 1570 1570
1534 1531 1529 1527 1528 1528 1537 1538 1541 1542 1543 1545 1546 1547 1548 1549 1550 1551 1552 1553 1553 1553 1553 1554 1555 1556 1557 1559 1560 1562 1564 1565 1567 1568 1570 1571 1572 1572 1572 1572 1573 1573 1573 1572 1572 1571 1571 1571 1570
1534 1530 1524 1528 1528 1531 1536 1538 1540 1542 1542 1545 1547 1547 1547 1548 1549 1550 1551 1552 1551 1551 1551 1552 1552 1554 1555 1557 1558 1561 1562 1564 1566 1567 1568 1569 1571 1571 1572 1572 1573 1573 1573 1573 1572 1571 1571 1570 1570
1535 1530 1531 1533 1535 1535 1537 1540 1541 1540 1540 1541 1544 1548 1547 1547 1548 1548 1549 1549 1549 1549 1549 1549 1549 1550 1552 1553 1556 1558 1561 1564 1565 1567 1567 1568 1570 1570 1571 1572 1573 1573 1573 1573 1573 1572 1571 1571 1570
1534 1535 1535 1536 1537 1539 1539 1540 1540 1541 1542 1542 1544 1545 1547 1547 1547 1547 1547 1547 1547 1547 1547 1547 1547 1548 1549 1551 1554 1557 1560 1563 1564 1564 1565 1567 1568 1570 1570 1571 1572 1572 1572 1572 1572 1572 1571 1571 1570
1534 1535 1537 1537 1538 1539 1540 1540 1540 1539 1541 1541 1542 1544 1546 1546 1546 1545 1545 1544 1544 1544 1544 1544 1545 1546 1547 1550 1552 1555 1557 1560 1560 1562 1564 1566 1567 1568 1568 1569 1570 1570 1570 1571 1571 1572 1572 1571 1571
1535 1536 1535 1536 1537 1538 1540 1538 1540 1537 1539 1541 1542 1543 1544 1544 1544 1543 1542 1542 1541 1541 1540 1541 1542 1543 1545 1548 1550 1552 1556 1558 1561 1562 1564 1565 1566 1566 1567 1567 1568 1568 1569 1569 1569 1569 1570 1570 1570
1536 1535 1531 1532 1534 1536 1538 1536 1534 1534 1537 1539 1541 1542 1542 1542 1542 1541 1540 1540 1539 1539 1538 1539 1539 1541 1542 1543 1547 1551 1554 1557 1559 1561 1562 1564 1565 1566 1566 1566 1566 1566 1567 1568 1568 1567 1569 1568 1567
1534 1534 1530 1524 1532 1534 1537 1524 1527 1534 1536 1538 1540 1541 1540 1540 1540 1540 1539 1539 1538 1538 1537 1537 1537 1538 1540 1544 1547 1550 1552 1555 1558 1561 1563 1564 1565 1566 1566 1566 1565 1565 1565 1565 1565 1565 1565 1566 1565
1530 1526 1523 1523 1530 1532 1534 1521 1529 1533 1535 1536 1538 1539 1540 1540 1539 1537 1537 1537 1537 1537 1537 1537 1537 1539 1541 1543 1546 1549 1553 1556 1558 1560 1562 1563 1564 1564 1565 1566 1566 1566 1566 1565 1565 1565 1564 1563 1562
1519 1524 1520 1524 1526 1530 1527 1525 1527 1531 1532 1532 1535 1537 1537 1538 1536 1535 1535 1536 1537 1537 1538 1539 1539 1541 1543 1544 1546 1549 1553 1556 1558 1559 1560 1561 1563 1564 1564 1565 1565 1565 1565 1564 1564 1563 1563 1562 1560
1520 1521 1520 1514 1523 1528 1521 1518 1515 1525 1528 1528 1530 1532 1534 1535 1534 1534 1535 1536 1537 1538 1539 1540 1542 1544 1546 1548 1549 1551 1553 1555 1557 1558 1559 1560 1562 1562 1564 1565 1565 1565 1564 1564 1564 1563 1562 1561 1559
1523 1523 1520 1514 1523 1528 1519 1515 1512 1513 1517 1521 1524 1527 1530 1533 1534 1534 1535 1536 1537 1539 1539 1541 1544 1546 1547 1548 1549 1550 1551 1553 1556 1558 1560 1561 1562 1562 1563 1563 1565 1565 1565 1564 1563 1563 1562 1560 1559
1520 1520 1517 1518 1525 1527 1522 1514 1508 1503 1510 1517 1520 1524 1527 1530 1532 1533 1534 1535 1537 1538 1540 1541 1543 1546 1548 1550 1551 1551 1552 1554 1555 1557 1559 1560 1561 1562 1562 1563 1564 1564 1565 1564 1563 1564 1563 1562 1560
1518 1513 1518 1519 1525 1521 1518 1509 1493 1491 1504 1511 1516 1519 1522 1525 1529 1531 1531 1534 1535 1538 1539 1541 1543 1546 1548 1551 1553 1554 1554 1554 1557 1558 1559 1560 1561 1561 1562 1563 1563 1563 1563 1564 1564 1562 1562 1563 1561
1515 1517 1519 1520 1522 1520 1515 1525 1485 1486 1494 1498 1507 1513 1517 1520 1523 1526 1528 1531 1533 1536 1539 1541 1544 1547 1549 1551 1553 1554 1555 1555 1557 1558 1560 1561 1562 1562 1562 1562 1562 1563 1562 1563 1564 1563 1563 1563 1562
1519 1522 1526 1526 1524 1519 1509 1510 1475 1476 1479 1483 1498 1506 1510 1514 1519 1522 1525 1529 1532 1534 1537 1540 1543 1545 1548 1551 1553 1555 1556 1557 1556 1557 1559 1560 1561 1561 1561 1561 1562 1563 1563 1562 1562 1562 1563 1562 1561
1517 1520 1524 1524 1528 1512 1499 1496 1471 1466 1476 1476 1487 1498 1506 1512 1517 1521 1523 1527 1530 1533 1536 1539 1542 1544 1546 1549 1551 1553 1555 1557 1557 1557 1557 1558 1560 1562 1563 1563 1563 1563 1563 1564 1564 1562 1561 1561 1560
1511 1508 1513 1521 1508 1498 1517 1495 1470 1469 1476 1480 1485 1494 1502 1508 1513 1517 1520 1524 1528 1531 1535 1538 1540 1543 1545 1548 1550 1551 1551 1554 1557 1559 1559 1558 1560 1562 1563 1562 1562 1563 1563 1561 1563 1561 1559 1560 1559
1506 1510 1501 1515 1533 1519 1485 1477 1467 1477 1480 1482 1483 1489 1495 1501 1507 1511 1516 1520 1524 1528 1532 1535 1538 1541 1543 1545 1547 1549 1550 1551 1553 1557 1558 1557 1558 1560 1559 1561 1560 1561 1559 1559 1560 1560 1558 1556 1556
1497 1496 1514 1513 1516 1502 1466 1463 1454 1472 1470 1478 1480 1484 1492 1498 1503 1507 1510 1514 1518 1524 1528 1531 1535 1539 1541 1543 1544 1547 1550 1552 1552 1553 1555 1556 1556 1557 1558 1558 1560 1559 1558 1556 1557 1557 1554 1554 1552
1497 1497 1494 1490 1489 1485 1472 1451 1439 1444 1454 1463 1471 1477 1482 1487 1493 1498 1504 1509 1513 1517 1521 1525 1529 1532 1536 1540 1543 1543 1546 1549 1549 1549 1551 1554 1554 1554 1556 1556 1557 1556 1558 1554 1552 1551 1551 1550 1549
1473 1477 1483 1484 1490 1484 1478 1442 1445 1444 1447 1457 1466 1472 1478 1483 1488 1494 1499 1503 1507 1510 1515 1520 1523 1527 1532 1535 1538 1540 1543 1545 1546 1545 1548 1550 1549 1552 1551 1552 1555 1554 1555 1551 1550 1547 1547 1545 1545
Wind_Speed
2 1 1 3 5 1 5 5 1 4 4 7 6 9 13 14 10 5 1 3 2 12 12 13 12 10 9 9 8 6 4 5 4 6 6 5 4 5 6 8 9 10 10 9 8 8 8 8 7
2 2 1 4 4 6 6 5 6 6 6 3 3 2 7 13 12 9 3 2 2 11 12 13 13 11 9 9 9 6 3 3 3 4 4 3 4 6 7 8 9 10 10 9 6 6 6 6 6
3 1 4 3 3 5 6 4 7 6 5 2 3 5 4 7 10 5 3 4 5 9 11 12 13 12 9 8 8 6 4 3 2 2 3 3 4 5 7 9 9 10 11 9 6 6 6 6 5
1 2 4 6 4 4 6 6 6 7 5 2 2 8 8 8 3 5 7 6 7 8 11 12 13 12 9 9 8 6 5 4 2 1 1 2 3 3 7 8 8 9 10 10 7 6 6 5 5
2 4 3 2 4 5 4 5 4 3 4 5 2 6 7 7 7 7 5 6 5 7 10 11 12 11 10 10 9 7 6 5 3 1 1 1 1 2 6 8 9 9 10 11 9 8 7 6 5
5 4 4 6 5 5 5 5 4 3 4 5 3 7 7 5 4 4 5 4 5 6 10 11 14 14 12 12 10 9 7 7 5 3 2 2 2 1 4 6 9 10 10 10 11 9 8 7 6
5 5 4 2 7 7 5 5 6 4 6 5 2 3 10 5 3 2 3 4 5 7 8 8 9 15 15 14 12 11 10 8 7 5 4 4 4 4 5 6 7 8 9 9 9 9 9 8 6
3 4 4 6 8 7 7 7 3 4 5 3 1 3 8 3 0 2 2 3 4 5 7 9 12 14 16 13 13 12 11 10 9 8 7 6 6 7 7 7 6 10 9 9 9 9 9 8 6
1 4 6 5 8 5 7 8 4 1 3 2 2 1 2 4 3 2 2 2 5 7 8 9 10 11 14 17 13 15 14 12 12 10 8 7 7 5 4 4 10 11 10 12 14 11 9 9 8
3 4 2 3 2 4 8 7 6 5 6 5 3 1 3 2 2 3 5 5 7 9 11 12 13 13 13 14 18 14 15 15 10 9 9 8 6 7 7 6 8 10 9 10 12 14 10 12 10
1 4 2 3 3 3 6 5 4 5 6 2 3 4 1 3 2 3 4 7 9 10 11 12 15 15 15 14 14 13 13 10 9 10 9 7 7 11 10 12 11 9 10 9 11 12 14 12 12
5 2 3 2 4 3 5 2 5 6 2 5 6 6 4 2 1 2 4 6 7 8 9 9 10 12 15 14 12 10 10 12 8 11 9 8 8 11 12 12 11 8 8 9 10 11 9 11 12
6 3 4 4 4 5 2 8 8 8 5 6 4 6 3 2 2 4 5 7 8 9 9 10 10 8 10 12 12 11 14 15 16 12 10 9 7 7 6 7 10 8 8 12 11 11 12 12 13
1 4 5 6 8 8 7 11 4 10 9 7 6 5 3 3 4 5 7 8 9 9 10 9 8 7 6 12 15 17 15 13 11 10 9 11 11 12 14 13 12 10 12 13 10 12 12 11 13
2 6 9 12 11 5 8 11 12 10 12 10 7 4 3 5 6 8 8 7 5 6 6 6 6 7 10 15 16 16 14 12 8 5 2 1 3 5 6 8 8 11 13 15 14 14 12 14 13
4 4 8 8 9 5 10 12 10 12 14 11 7 5 5 7 6 6 5 4 3 3 3 4 5 7 11 16 17 17 15 12 9 6 4 1 2 4 5 6 6 8 9 7 9 10 11 14 15
8 10 9 5 11 5 11 3 10 14 13 11 9 7 6 4 2 4 5 5 4 4 5 6 9 12 15 17 17 15 14 12 9 6 4 2 1 2 2 4 4 6 5 5 6 8 9 10 11
10 11 9 10 7 9 11 13 9 13 15 14 12 10 8 7 6 6 7 8 8 10 12 13 15 16 16 16 16 15 13 10 9 8 5 2 0 3 3 4 5 6 7 7 7 8 9 11 14
8 10 12 8 4 4 13 15 12 17 15 16 14 13 11 9 8 8 9 12 13 16 17 18 19 20 18 17 17 16 15 15 11 8 7 5 4 2 3 3 4 4 5 7 9 9 10 13 15
13 15 16 13 4 4 12 17 15 17 23 21 18 16 14 11 9 10 12 15 17 19 20 20 20 20 19 18 18 17 16 15 14 13 10 9 7 6 5 5 6 7 7 8 9 9 9 12 16
16 16 14 14 2 10 12 19 22 24 19 14 15 15 14 14 13 12 14 15 18 19 20 20 19 17 16 17 19 20 20 18 15 13 10 9 7 6 6 6 6 7 8 9 11 12 13 14 15
16 14 14 12 7 10 6 10 12 11 16 17 18 19 19 18 16 15 16 18 20 22 23 23 23 23 23 21 18 15 15 16 14 12 10 7 5 4 4 4 5 6 8 9 10 12 13 14 14
8 2 7 11 14 15 18 9 13 7 14 18 23 24 23 22 20 20 20 24 26 27 27 26 24 23 20 16 14 13 13 13 13 11 9 7 5 5 6 8 9 9 10 12 13 13 15 15 15
10 5 2 3 8 12 18 16 14 13 14 13 23 26 27 26 24 23 26 28 29 29 28 26 24 21 18 16 14 12 11 12 12 10 7 5 5 5 6 7 8 10 11 12 13 14 15 16 16
12 7 4 5 6 8 1 13 17 2 5 9 24 30 29 26 25 24 29 29 29 28 27 25 22 19 18 16 15 14 12 10 8 7 5 4 3 3 4 5 6 7 8 10 11 12 14 15 15
18 17 6 6 6 5 2 9 7 3 8 6 20 27 28 28 27 28 31 30 30 29 27 24 22 19 18 16 13 12 11 9 6 4 4 4 3 2 2 4 5 7 8 10 12 13 14 15 16
7 12 13 4 2 4 7 10 7 7 7 8 21 28 31 32 31 33 32 32 33 31 28 25 22 19 18 16 14 12 10 11 9 8 6 5 4 3 3 5 6 8 9 11 12 14 15 16 18
9 8 6 6 6 8 9 14 10 9 15 14 20 28 29 30 31 34 37 37 35 32 29 26 22 19 17 16 16 15 13 11 10 9 7 6 4 4 4 5 8 10 11 12 14 16 17 18 18
7 9 8 6 9 4 5 7 9 13 16 20 21 28 34 36 36 37 40 39 37 34 32 29 25 22 20 19 18 16 15 15 13 11 8 7 5 3 5 7 10 12 14 14 15 16 18 19 20
17 14 20 6 6 6 4 11 3 3 11 21 24 28 31 35 36 37 39 40 38 37 34 31 28 25 22 21 20 19 19 17 15 12 10 8 5 5 5 8 11 13 15 16 17 18 19 21 22
Wind_Direction
343 7 46 304 232 202 121 94 42 92 108 53 51 38 72 46 24 59 73 141 144 163 181 184 180 176 169 167 164 153 122 101 92 86 87 92 83 49 35 23 24 27 31 34 41 43 46 48 52
106 103 353 277 231 157 105 124 104 70 81 82 92 117 76 78 60 77 76 17 151 163 172 179 185 179 180 179 177 175 157 113 92 83 84 81 36 27 23 27 25 25 26 21 30 36 35 39 39
98 100 271 275 298 97 126 135 113 98 94 139 117 45 45 48 51 73 108 95 104 158 162 192 184 181 188 185 186 185 183 163 126 81 71 55 17 16 31 25 24 22 21 19 24 21 18 13 17
1 261 236 253 125 75 110 126 118 129 102 103 88 90 89 44 71 61 115 102 124 161 171 199 191 191 195 191 197 212 216 200 178 73 39 20 21 32 21 24 22 21 23 25 27 18 13 8 7
318 247 236 187 121 122 117 111 146 143 102 104 301 115 91 47 73 81 87 87 119 156 181 198 199 202 197 207 215 220 220 214 221 249 300 331 360 27 9 7 7 7 15 20 21 17 9 2 1
236 280 234 196 153 139 138 144 170 171 136 116 102 121 87 77 101 93 96 88 109 164 180 195 202 210 210 218 223 226 230 231 242 257 264 267 226 273 344 353 355 357 3 5 9 8 6 8 10
287 254 278 238 166 171 152 156 200 165 152 98 80 167 133 71 101 121 140 139 146 159 178 191 207 217 218 219 221 225 233 237 244 256 260 259 247 268 303 321 339 346 351 355 356 1 1 4 7
286 269 233 218 186 196 152 169 162 237 115 118 36 161 162 237 350 160 194 212 205 204 205 201 200 213 212 221 236 231 229 240 244 251 253 261 269 271 288 303 337 337 336 342 341 349 357 359 358
292 243 225 214 220 178 163 186 172 174 179 117 37 65 216 251 255 220 226 252 234 228 226 225 227 227 220 214 213 231 234 233 239 250 255 256 264 257 268 298 322 335 346 350 352 344 350 355 354
264 260 226 355 195 196 171 216 178 214 191 168 121 332 290 288 187 176 198 229 247 248 245 241 234 229 227 225 220 215 226 235 239 245 242 231 225 245 266 311 321 324 324 334 345 350 349 359 353
214 281 110 156 145 172 173 203 205 233 225 21 226 144 134 98 120 174 214 236 246 251 253 252 244 235 228 223 221 216 220 224 225 233 234 225 247 274 280 297 302 309 315 329 331 336 342 346 353
238 191 197 158 174 183 201 222 226 235 76 134 139 165 155 145 226 250 252 251 249 249 251 253 253 242 233 223 214 199 196 205 204 215 215 230 242 255 268 275 281 288 306 317 318 321 316 327 335
246 177 205 187 184 215 257 243 257 221 177 176 181 168 169 216 259 274 276 280 277 266 257 252 247 247 238 218 199 185 193 200 211 219 227 231 237 241 257 257 273 267 276 288 297 311 315 314 322
41 225 217 214 220 232 231 241 205 211 189 178 174 163 194 255 295 297 284 277 268 265 261 253 243 228 204 176 189 190 194 197 214 224 233 238 251 254 261 273 269 271 270 280 275 293 293 293 311
249 265 227 228 225 242 214 245 230 171 167 165 167 178 226 264 271 273 275 274 269 261 256 247 229 201 194 187 183 185 183 188 190 191 199 277 307 302 303 291 291 293 274 269 287 283 283 289 300
246 241 250 123 183 188 195 266 152 171 172 177 183 198 229 241 245 255 258 256 243 236 207 190 184 174 167 163 170 175 173 172 174 158 156 214 292 296 303 301 309 302 280 309 299 302 302 292 301
215 262 212 195 200 155 203 244 158 182 192 200 208 207 205 209 246 246 212 193 187 160 140 134 134 140 149 158 167 172 170 171 160 155 147 136 265 41 5 335 333 328 336 345 329 325 315 305 304
259 230 250 255 161 222 214 246 163 197 214 218 211 208 207 201 220 224 197 170 154 134 124 124 131 135 148 158 163 164 161 159 161 156 152 148 3 348 335 312 322 328 327 324 314 305 301 308 309
289 282 266 269 101 258 243 251 224 201 214 218 213 213 207 198 207 196 174 160 148 135 132 131 135 138 142 145 149 154 156 149 146 141 127 114 101 82 27 8 356 342 341 344 343 343 342 324 322
239 253 256 264 150 253 270 264 260 227 213 220 221 213 200 188 175 174 167 160 152 148 144 141 143 145 152 155 153 151 146 136 125 113 107 99 89 77 57 41 26 15 6 3 359 359 357 348 351
234 240 252 260 144 239 273 267 255 244 212 216 226 212 196 185 173 169 161 161 161 156 151 150 151 153 150 147 142 135 129 125 123 120 116 111 102 85 68 52 38 32 16 11 11 8 9 9 8
243 227 254 262 251 261 166 281 278 242 207 211 208 201 189 178 170 166 161 160 158 155 152 148 144 142 139 137 134 135 135 135 132 130 123 112 96 83 60 42 30 18 10 5 4 6 5 2 6
255 63 228 247 258 272 255 264 264 242 215 208 204 199 189 179 173 168 165 161 156 152 149 147 145 143 141 139 142 145 147 141 138 129 125 120 102 73 49 35 27 17 16 12 10 6 4 3 3
130 115 85 254 264 257 240 234 258 218 231 201 190 193 186 179 174 172 168 162 161 157 155 154 154 154 153 151 152 154 154 146 138 128 119 90 66 42 27 13 4 358 355 351 351 353 354 355 355
200 177 249 238 213 256 322 219 248 226 168 200 183 187 184 179 176 174 173 168 166 163 162 161 161 162 162 162 162 161 157 149 134 122 115 87 56 18 359 346 339 337 341 343 344 347 346 344 343
197 198 203 247 235 267 23 235 244 254 124 144 183 182 179 180 182 183 180 176 174 172 170 169 169 172 172 173 173 170 163 157 147 153 165 180 208 253 302 319 328 338 344 343 337 337 337 335 335
169 222 236 310 160 269 224 246 260 161 181 170 170 175 181 184 185 187 185 184 183 181 179 179 179 179 180 182 183 185 185 184 182 187 190 195 214 256 281 306 322 328 330 332 330 329 331 331 332
210 160 176 217 229 239 242 242 241 209 198 180 179 182 184 186 188 190 192 191 189 188 187 187 187 188 190 191 195 195 196 199 198 199 210 219 233 259 296 317 325 328 328 328 326 325 326 326 328
180 205 218 224 222 257 275 243 187 204 189 185 185 186 187 189 189 193 195 196 194 194 195 195 195 197 198 201 203 202 208 210 209 212 218 226 238 264 306 325 327 325 320 320 320 321 322 323 325
225 214 205 211 186 242 288 254 157 135 176 176 185 190 192 193 192 194 197 199 198 199 200 202 204 204 205 209 209 210 213 215 216 217 220 228 241 278 305 318 317 319 317 320 319 321 321 323 323